User: anonymous   Login
Location: Brunembert
(50.7122°N, 1.8935°E)
Time: 01:26:47
(UTC+00:00)
Language:

CARTOSAT-1 - Orbit

View from above orbital plane
View from above orbital plane
View from above satellite
View from above satellite

Ground track
Ground track

The orbit data is extracted from the following two-line orbital elements,

1 28649U 05017A   21174.41778907  .00000076  00000-0  15344-4 0  9994
2 28649  97.7673 240.4138 0000947  29.9709 330.1559 14.83795689873495
Epoch (UTC): 23 June 2021 10:01:36
Eccentricity: 0.0000947
inclination: 97.7673°
perigee height: 617 km
apogee height: 618 km
right ascension of ascending node: 240.4138°
argument of perigee: 29.9709°
revolutions per day: 14.83795689
mean anomaly at epoch: 330.1559°
orbit number at epoch: 87349

The dashed part of the orbit path shows where the satellite is in the earth's shadow,  

DLR